Oak Ridge, TN

10:03 PM EDT on August 23, 2016 (GMT -0400)
Oak Ridge

Weather History for KOQT - May, 2014

Change the Weather History Date:

Sunday, May 18, 2014

  Actual Average (KTYS) Record (KTYS)
Temperature  
Mean Temperature 60 °F 68 °F  
Max Temperature 69 °F 79 °F 94 °F (1962)
Min Temperature 51 °F 57 °F 38 °F (1973)
Degree Days  
Heating Degree Days 5 2  
Month to date heating degree days 47  
Since 1 July heating degree days 3622  
Cooling Degree Days 0 4  
Month to date cooling degree days 52  
Year to date cooling degree days 89  
Growing Degree Days 10 (Base 50)    
Moisture  
Dew Point 47 °F    
Average Humidity 65    
Maximum Humidity 89    
Minimum Humidity 42    
Precipitation  
Precipitation 0.00 in 0.15 in 1.99 in (1995)
Month to date precipitation 2.73  
Year to date precipitation 19.66  
Snow  
Snow 0.00 in 0.00 in - ()
Month to date snowfall 0.0  
Since 1 July snowfall 6.5  
Snow Depth -    
Sea Level Pressure  
Sea Level Pressure 30.22 in    
Wind  
Wind Speed 1 mph (East)    
Max Wind Speed 7 mph    
Max Gust Speed -    
Visibility 10 miles    
Events      
T = Trace of Precipitation, MM = Missing Value Source: NWS Daily Summary

Daily Weather History Graph

Daily Weather History Graph

Search for Another Location

Airport or City:

Trip Planner

Search our weather history database for the weather conditions in past years. The results will help you decide how hot, cold, wet, or windy it might be!

Date:

Astronomy

May. 18, 2014 Rise Set
Actual Time 6:28 AM EDT 8:38 PM EDT
Civil Twilight 6:00 AM EDT 9:07 PM EDT
Nautical Twilight 5:24 AM EDT 9:42 PM EDT
Astronomical Twilight 4:46 AM EDT 10:20 PM EDT
Moon No Moon Rise 10:15 AM EDT (5/18)
Length of Visible Light 15h 07m
Length of Day
14h 09m
Waning Gibbous, 81% of the Moon is Illuminated
May 18
Waning Gibbous
May 21
Last Quarter
May 28
New
Jun 5
First Quarter
Jun 13
Full

Hourly Weather History & Observations

Time (EDT) Temp. Dew Point Humidity Pressure Visibility Wind Dir Wind Speed Gust Speed Precip Events Conditions
12:53 AM 53.1 °F 50.0 °F 89% 30.23 in 10.0 mi Calm Calm - N/A   Clear
1:53 AM 53.1 °F 50.0 °F 89% 30.22 in 10.0 mi ENE 3.5 mph - N/A   Clear
2:53 AM 53.1 °F 46.9 °F 80% 30.22 in 10.0 mi Calm Calm - N/A   Overcast
3:53 AM 52.0 °F 48.0 °F 86% 30.23 in 10.0 mi Calm Calm - N/A   Overcast
4:53 AM 51.1 °F 46.9 °F 86% 30.23 in 10.0 mi Calm Calm - N/A   Partly Cloudy
5:53 AM 51.1 °F 46.9 °F 86% 30.23 in 10.0 mi ENE 3.5 mph - N/A   Scattered Clouds
6:53 AM 52.0 °F 45.0 °F 77% 30.24 in 10.0 mi Calm Calm - N/A   Clear
7:53 AM 52.0 °F 45.0 °F 77% 30.25 in 10.0 mi Calm Calm - N/A   Clear
8:53 AM 55.9 °F 44.1 °F 64% 30.25 in 10.0 mi Variable 4.6 mph - N/A   Clear
9:53 AM 57.9 °F 45.0 °F 62% 30.25 in 10.0 mi Variable 4.6 mph - N/A   Clear
10:53 AM 62.1 °F 45.0 °F 53% 30.25 in 10.0 mi Variable 4.6 mph - N/A   Clear
11:53 AM 64.0 °F 45.0 °F 50% 30.25 in 10.0 mi Calm Calm - N/A   Clear
12:53 PM 64.9 °F 45.0 °F 48% 30.24 in 10.0 mi Calm Calm - N/A   Scattered Clouds
1:53 PM 66.0 °F 45.0 °F 47% 30.22 in 10.0 mi Calm Calm - N/A   Partly Cloudy
2:53 PM 66.0 °F 44.1 °F 45% 30.20 in 10.0 mi Calm Calm - N/A   Overcast
3:53 PM 66.9 °F 43.0 °F 42% 30.19 in 10.0 mi Calm Calm - N/A   Mostly Cloudy
4:53 PM 68.0 °F 44.1 °F 42% 30.18 in 10.0 mi East 5.8 mph - N/A   Mostly Cloudy
5:53 PM 68.0 °F 45.0 °F 43% 30.17 in 10.0 mi Variable 6.9 mph - N/A   Mostly Cloudy
6:53 PM 69.1 °F 45.0 °F 42% 30.17 in 10.0 mi Variable 4.6 mph - N/A   Mostly Cloudy
7:53 PM 66.9 °F 46.9 °F 49% 30.18 in 10.0 mi Calm Calm - N/A   Scattered Clouds
8:53 PM 64.0 °F 50.0 °F 60% 30.19 in 10.0 mi Calm Calm - N/A   Scattered Clouds
9:53 PM 62.1 °F 51.1 °F 67% 30.20 in 10.0 mi SW 3.5 mph - N/A   Scattered Clouds
10:53 PM 57.9 °F 51.1 °F 78% 30.22 in 10.0 mi Calm Calm - N/A   Clear
11:53 PM 55.0 °F 51.1 °F 86% 30.22 in 10.0 mi Calm Calm - N/A   Clear